Lexington Weather

Lexington, Massachusetts, USA

48°F
12/8/2022 3:02pm 
  • Lexington Conditions: Clear
  • Temperature: 48.4°F / 9.1°CColder 1.4°F than last hour.
  • Dew Point: 35.1°FDecreased 1.0°Fsince last hour.
  • Relative Humidity: 60%Increased 1.0% since last hour.
  • Wind: Wind from NNE NNE Calm, 10-min avg: 2 mph, gust: 8 mph
  • Barometer: 30.08 inRising 0.02  inHg/hr Rising Slowly
  • Visibility: 10 miles
  • Rain Today: 0.00 in
  •   

Warning: Undefined variable $rc in /homepages/6/d276339138/htdocs/weather/20190804/ssi/nwsProduct.php on line 323

Warning: Undefined variable $rc in /homepages/6/d276339138/htdocs/weather/20190804/ssi/nwsProduct.php on line 325

Warning: Undefined variable $rc in /homepages/6/d276339138/htdocs/weather/20190804/ssi/nwsProduct.php on line 323

Warning: Undefined variable $rc in /homepages/6/d276339138/htdocs/weather/20190804/ssi/nwsProduct.php on line 325

Warning: Undefined variable $rc in /homepages/6/d276339138/htdocs/weather/20190804/ssi/nwsProduct.php on line 323

Warning: Undefined variable $rc in /homepages/6/d276339138/htdocs/weather/20190804/ssi/nwsProduct.php on line 325

Warning: Undefined variable $rc in /homepages/6/d276339138/htdocs/weather/20190804/ssi/nwsProduct.php on line 323

Warning: Undefined variable $rc in /homepages/6/d276339138/htdocs/weather/20190804/ssi/nwsProduct.php on line 325

Warning: Undefined variable $rc in /homepages/6/d276339138/htdocs/weather/20190804/ssi/nwsProduct.php on line 323

Warning: Undefined variable $rc in /homepages/6/d276339138/htdocs/weather/20190804/ssi/nwsProduct.php on line 325

Warning: Undefined variable $rc in /homepages/6/d276339138/htdocs/weather/20190804/ssi/nwsProduct.php on line 323

Warning: Undefined variable $rc in /homepages/6/d276339138/htdocs/weather/20190804/ssi/nwsProduct.php on line 325

Warning: Undefined variable $rc in /homepages/6/d276339138/htdocs/weather/20190804/ssi/nwsProduct.php on line 323

Warning: Undefined variable $rc in /homepages/6/d276339138/htdocs/weather/20190804/ssi/nwsProduct.php on line 325

Regional Weather Roundup
for Boston, MA

        
000
ASUS41 KBOX 071510
RWRBOX

REGIONAL WEATHER ROUNDUP
NATIONAL WEATHER SERVICE BOSTON/NORTON MA
1000 AM EST WED DEC 07 2022

NOTE:  "FAIR" INDICATES FEW OR NO CLOUDS BELOW 12,000 FEET WITH NO 
SIGNIFICANT WEATHER AND/OR OBSTRUCTIONS TO VISIBILITY.

MAZALL-071600-
EASTERN MASSACHUSETTS
  
CITY           SKY/WX    TMP DP  RH WIND       PRES   REMARKS
BOSTON         LGT RAIN  53  51  93 S13       30.24F                  
BEVERLY        LGT RAIN  50  50 100 SE15      30.24F FOG              
LAWRENCE       CLOUDY    52  50  93 S7        30.25F                  
BEDFORD        CLOUDY    55  52  89 SE10      30.21F FOG              
NORWOOD        CLOUDY    55  52  89 SE9       30.24F FOG              
MARSHFIELD       N/A     52  50  93 S8        30.26F                  
PLYMOUTH       LGT RAIN  54  53  97 S8        30.26F                  
TAUNTON          N/A    N/A N/A N/A MISG      30.26S                  
NEW BEDFORD    CLOUDY    53  53 100 SE15      30.26F                  
$$

MAZALL-071600-
CAPE COD AND THE ISLANDS
  
CITY           SKY/WX    TMP DP  RH WIND       PRES   REMARKS
FALMOUTH       CLOUDY    52  52 100 S15G24    30.29  FOG              
HYANNIS        RAIN      51  51 100 SE10G21   30.28F FOG              
CHATHAM        HVY RAIN  54  52  93 SE9G16    30.32F FOG              
PROVINCETOWN   LGT RAIN  52  52 100 SE14G21   30.27F                  
NANTUCKET      RAIN      54  53  97 SE9       30.32S FOG              
MARTHAS VNYRD  LGT RAIN  54  53  97 SE14G24   30.28F                  
$$
 
MAZALL-071600-
CENTRAL AND WESTERN MASSACHUSETTS
  
CITY           SKY/WX    TMP DP  RH WIND       PRES   REMARKS
WORCESTER      LGT RAIN  55  53  93 S12       30.21S FOG              
FITCHBURG      LGT RAIN  51  48  89 CALM      30.22S VSB 3/4          
ORANGE         CLOUDY    55  53  93 S9        30.20S FOG              
SPRINGFIELD    DRIZZLE   56  56  99 S12       30.17R                  
WESTFIELD      CLOUDY    55  55 100 S7        30.18S FOG              
NORTH ADAMS    CLOUDY    55  53  93 SE3       30.16F                  
PITTSFIELD     CLOUDY    55  53  93 S5        30.15F                  
$$
 
RIZALL-071600-
RHODE ISLAND
  
CITY           SKY/WX    TMP DP  RH WIND       PRES   REMARKS
PROVIDENCE     RAIN      54  54 100 S8        30.26S FOG              
NEWPORT        CLOUDY    54  53  97 SE16G24   30.25S FOG              
BLOCK ISLAND   LGT RAIN  56  54  93 S16       30.26S FOG              
SMITHFIELD     LGT RAIN  54  54 100 VRB7G16   30.23F FOG              
WESTERLY       LGT RAIN  56  55  97 S13       30.24F FOG              
$$
 
CTZALL-071600-
CONNECTICUT
  
CITY           SKY/WX    TMP DP  RH WIND       PRES   REMARKS
BRADLEY INTL   CLOUDY    57  55  93 S8        30.19S FOG              
HARTFORD       CLOUDY    58  55  90 S7        30.20R                  
BRIDGEPORT     LGT RAIN  55  55 100 S9        30.20S FOG              
DANBURY        CLOUDY    59  56  89 S3        30.20F                  
GROTON         LGT RAIN  58  56  93 S17       30.22S VSB 1            
NEW HAVEN      CLOUDY    57  57 100 S3        30.20F FOG              
CHESTER        RAIN      57  57 100 S6        30.22S                  
MERIDEN        CLOUDY    56  54  93 S9        30.20F FOG              
WILLIMANTIC    LGT RAIN  56  56 100 S6        30.22S                  
OXFORD         FOG       55  55 100 S6        30.20F VSB 3/4          
$$

MEZ002-015-021-024-NHZ003-005-008-011-012-014-VTZ005-008-071600-
NORTHERN NEW ENGLAND
  
CITY           SKY/WX    TMP DP  RH WIND       PRES   REMARKS
PORTLAND ME    LGT RAIN  49  49 100 E5        30.28F FOG              
BANGOR ME      LGT RAIN  47  45  93 SE6       30.33S                  
CONCORD NH     LGT RAIN  49  49 100 E3        30.23F FOG              
MANCHESTER NH  CLOUDY    52  50  93 SE6       30.21F FOG              
NASHUA NH      LGT RAIN  51  32  48 VRB3      30.23S                  
PORTSMOUTH NH  LGT RAIN  51  49  96 SE13G21   30.24F FOG              
JAFFREY NH     CLOUDY    52  49  89 S5        30.20S FOG              
KEENE NH       CLOUDY    52  51  97 CALM        N/A  FOG              
BURLINGTON VT  CLOUDY    52  50  93 S5        30.12R                  
MT. WASHINGTON LGT RAIN  34  34 100 S37         N/A  VSB 1/16WCI  19  
$$

NYZ052-076-071600-
EASTERN NEW YORK
  
CITY           SKY/WX    TMP DP  RH WIND       PRES   REMARKS
ALBANY         CLOUDY    57  53  86 S12G17    30.14S                  
NEW YORK CITY  DRZL/FOG  57  54  89 VRB3      30.18F VSB 1            
$$
 
ANZALL-071600-
MARINE OBSERVATIONS
  
STATION/POSITION TIME  TEMP    WIND        PRES    VSBY  WAVE
                       AIR SEA DIR/SP/G                  HT/PER
                 (UTC) (F)     (DEG/KT/KT) (MB)    (MI)  (FT/S)
BOSTON BUOY      1450      50  160/ 19/ 23 1025.2F         5/10
BUZZARDS BAY     1400   53     140/ 24/ 25 1024.8F
NANTUCKET SOUND  1450   52 49  140/ 14/ 17 1025.9F         2/ 3
MASS BAY-STELLWA 1304   50 50  140/ 19/ 25 1024.1F   7/8   6/ 5
ISLE OF SHOALS   1400   50     150/ 30/ 32 1023.3F
S OF BLOCK IS    1456      55                N/A           6/12
$$

......................KEY.........................
  SKY/WX - SKY CONDITION/PRESENT WEATHER
  TMP    - TEMPERATURE IN FAHRENHEIT
  DWPT   - DEWPOINT IN FAHRENHEIT
  RH     - RELATIVE HUMIDITY IN PERCENT
  WIND   - DIRECTION AND SPEED IN MPH
  PRES   - MEAN SEA LEVEL PRESSURE IN INCHES OF HG
  WCI    - WIND CHILL INDEX
  VSB    - VISIBILITY IN MILES
  HX     - HEAT INDEX
  TC     - TEMPERATURE IN CELSIUS
  VRB    - VARIABLE WIND DIRECTION
  N/A    - NOT AVAILABLE
  
      

Other recent Regional Weather Roundups

Thu Dec 8, 2:10pm

Thu Dec 8, 1:10pm

Thu Dec 8, 12:10pm

Thu Dec 8, 11:10am

Thu Dec 8, 10:10am

Thu Dec 8, 9:10am

Thu Dec 8, 8:10am

Thu Dec 8, 7:10am

Thu Dec 8, 6:10am

Thu Dec 8, 5:10am

Thu Dec 8, 4:10am

Thu Dec 8, 3:10am

Thu Dec 8, 2:10am

Thu Dec 8, 1:10am

Thu Dec 8, 12:10am

Wed Dec 7, 11:10pm

Wed Dec 7, 10:10pm

Wed Dec 7, 9:10pm

Wed Dec 7, 8:10pm

Wed Dec 7, 7:10pm

Wed Dec 7, 6:10pm

Wed Dec 7, 5:10pm

Wed Dec 7, 4:10pm

Wed Dec 7, 3:10pm

Wed Dec 7, 2:10pm

Wed Dec 7, 1:10pm

Wed Dec 7, 12:10pm

Wed Dec 7, 11:10am

Wed Dec 7, 9:10am

Wed Dec 7, 8:10am

Wed Dec 7, 7:10am

Wed Dec 7, 6:10am

Wed Dec 7, 5:10am

Wed Dec 7, 4:10am

Wed Dec 7, 3:10am

Wed Dec 7, 2:10am

Wed Dec 7, 1:10am

Wed Dec 7, 12:10am

Tue Dec 6, 11:10pm

Tue Dec 6, 10:10pm

Tue Dec 6, 9:10pm

Tue Dec 6, 8:10pm

Tue Dec 6, 7:10pm

Tue Dec 6, 6:10pm

Tue Dec 6, 5:10pm

Tue Dec 6, 4:10pm

Tue Dec 6, 3:10pm

Tue Dec 6, 2:10pm

Tue Dec 6, 1:10pm

Tue Dec 6, 12:10pm

Tue Dec 6, 11:10am

Tue Dec 6, 10:10am

Tue Dec 6, 9:10am

Tue Dec 6, 8:10am

Tue Dec 6, 7:10am

Tue Dec 6, 6:10am

Tue Dec 6, 5:10am

Tue Dec 6, 4:10am

Tue Dec 6, 3:10am

Tue Dec 6, 2:10am

Tue Dec 6, 1:10am

Tue Dec 6, 12:10am

Mon Dec 5, 11:10pm

Mon Dec 5, 10:10pm

Mon Dec 5, 9:10pm

Mon Dec 5, 8:10pm

Mon Dec 5, 7:10pm

Mon Dec 5, 6:10pm

Mon Dec 5, 5:10pm

Mon Dec 5, 4:10pm

Mon Dec 5, 3:10pm

Mon Dec 5, 2:10pm

Mon Dec 5, 1:10pm

Mon Dec 5, 12:10pm

Mon Dec 5, 11:10am

Mon Dec 5, 10:10am

Mon Dec 5, 9:10am

Mon Dec 5, 8:10am

Mon Dec 5, 7:10am

Mon Dec 5, 6:10am

Mon Dec 5, 5:10am

Mon Dec 5, 4:10am

Mon Dec 5, 3:10am

Mon Dec 5, 2:10am

Mon Dec 5, 1:10am

Mon Dec 5, 12:10am

Sun Dec 4, 11:10pm

Sun Dec 4, 10:10pm

Sun Dec 4, 9:10pm

Sun Dec 4, 8:10pm

Sun Dec 4, 7:10pm

Sun Dec 4, 6:10pm

Sun Dec 4, 5:10pm

Sun Dec 4, 4:10pm

Sun Dec 4, 3:10pm

Sun Dec 4, 2:10pm

Sun Dec 4, 1:10pm

Sun Dec 4, 12:10pm

Sun Dec 4, 11:10am

Sun Dec 4, 10:10am

Sun Dec 4, 9:10am

Sun Dec 4, 8:10am

Sun Dec 4, 7:10am

Sun Dec 4, 6:10am

Sun Dec 4, 5:10am

Sun Dec 4, 4:10am

Sun Dec 4, 3:10am

Sun Dec 4, 2:10am

Sun Dec 4, 1:10am

Sun Dec 4, 12:10am

Sat Dec 3, 11:10pm

Sat Dec 3, 10:10pm

Sat Dec 3, 9:10pm

Sat Dec 3, 8:10pm

Sat Dec 3, 7:10pm

Sat Dec 3, 6:10pm

Sat Dec 3, 5:10pm

Sat Dec 3, 4:10pm

Sat Dec 3, 3:10pm

Sat Dec 3, 2:10pm

Sat Dec 3, 1:10pm

Sat Dec 3, 12:10pm

Sat Dec 3, 11:10am

Sat Dec 3, 10:10am

Sat Dec 3, 9:10am

Sat Dec 3, 8:10am

Sat Dec 3, 7:10am

Sat Dec 3, 6:10am

Sat Dec 3, 5:10am

Sat Dec 3, 4:10am

Sat Dec 3, 3:10am

Sat Dec 3, 2:10am

Sat Dec 3, 1:10am

Sat Dec 3, 12:10am

Fri Dec 2, 11:10pm

Fri Dec 2, 10:10pm

Fri Dec 2, 9:10pm

Fri Dec 2, 8:10pm

Fri Dec 2, 7:10pm

Fri Dec 2, 6:10pm

Fri Dec 2, 5:10pm

Fri Dec 2, 4:10pm

Fri Dec 2, 3:10pm

Fri Dec 2, 2:10pm

Fri Dec 2, 1:10pm

Fri Dec 2, 12:10pm

Fri Dec 2, 11:10am

Fri Dec 2, 10:10am

Fri Dec 2, 9:10am

Fri Dec 2, 8:10am

Fri Dec 2, 7:10am

Fri Dec 2, 6:10am

Fri Dec 2, 5:10am

Fri Dec 2, 4:10am

Fri Dec 2, 3:10am

Fri Dec 2, 2:10am

Fri Dec 2, 1:10am

Fri Dec 2, 12:10am

Thu Dec 1, 11:10pm

Thu Dec 1, 10:10pm

Thu Dec 1, 9:10pm

Thu Dec 1, 8:10pm

Thu Dec 1, 7:10pm

Thu Dec 1, 6:10pm

Thu Dec 1, 5:10pm

Thu Dec 1, 4:10pm

Thu Dec 1, 3:10pm

Meta data:

ID: 29cd8be2-ecf2-41ef-8a6f-4ccbcd87c437
Link: https://api.weather.gov/products/29cd8be2-ecf2-41ef-8a6f-4ccbcd87c437